Regional Weather Roundup
Issued by NWS

Home | Current Version | Previous Version | Text Only | Print | Product List | Glossary Off
Versions: 1 2 3 4 5 6 7 8 9 10 11 12 13 14 15 16 17 18 19 20 21 22 23 24 25 26 27 28 29 30 31 32 33 34 35 36 37 38 39 40 41 42 43 44 45 46 47 48 49 50

000
ASUS43 KDMX 241007
RWRIA

WEATHER ROUNDUP FOR IOWA
NATIONAL WEATHER SERVICE DES MOINES IA
400 AM CST MON NOV 24 2014

NOTE: "FAIR" INDICATES FEW OR NO CLOUDS BELOW 12,000 FEET WITH NO
SIGNIFICANT WEATHER AND/OR OBSTRUCTIONS TO VISIBILITY.

* - THESE STATIONS ARE NOT NWS STATIONS...THUS NOT UNDER NWS
QUALITY CONTROL.  THEY ALSO DO NOT REPORT WEATHER SUCH
AS PRECIPITATION OR FOG.

IAZ001>003-012>014-020>022-031>034-043>046-241100-
   NORTHWEST IOWA

CITY           SKY/WX    TMP DP  RH WIND       PRES   REMARKS
CARROLL *      CLOUDY    27  21  80 NW25G37   29.46S WCI  11
CHEROKEE *     CLOUDY    23  16  74 NW17G31   29.51R WCI   9
DENISON *      CLOUDY    25  16  68 NW25G37   29.49S WCI   9
LE MARS *      CLOUDY    23  16  74 NW18G29   29.55S WCI   9
ORANGE CITY *  MOCLDY    21  14  73 NW21G32   29.51S WCI   6
SHELDON *      CLOUDY    21  14  73 NW23G32   29.49R WCI   5
SIOUX CITY     CLOUDY    26  16  65 NW24G35   29.55R WCI  11
SPENCER        CLOUDY    24  16  71 NW23G30   29.46R WCI   9
STORM LAKE *   CLOUDY    25  18  74 NW26G35   29.47S WCI   9
$$

IAZ055>058-069>071-079>083-090>094-241100-
   SOUTHWEST IOWA

CITY           SKY/WX    TMP DP  RH WIND       PRES   REMARKS
ATLANTIC *     CLOUDY    28  21  74 NW22G29   29.50S WCI  15
AUDUBON *      MOCLDY    27  19  74 NW16G24   29.47F WCI  14
CLARINDA *     CLOUDY    32  25  74 NW18G26   29.55R WCI  20
COUNCIL BLFS * CLOUDY    28  21  74 NW16G26   29.52S WCI  17
CRESTON *      CLOUDY    28  23  80 NW24G31   29.47R WCI  14
HARLAN  *      CLOUDY    27  19  74 NW25G36   29.54S WCI  11
LAMONI         CLOUDY    30  23  75 NW20G33   29.46R WCI  17
RED OAK *      CLOUDY    32  25  74 NW13G23   29.53R WCI  22
SHENANDOAH *   CLOUDY    32  23  69 NW18      29.57R WCI  20
$$

IAZ047>049-059>061-072>074-084-241100-
   CENTRAL IOWA

CITY           SKY/WX    TMP DP  RH WIND       PRES   REMARKS
AMES           CLOUDY    30  22  72 NW24G32   29.39R WCI  16
ANKENY *       CLOUDY    30  25  80 NW24G32   29.40R WCI  16
CHARITON *     CLOUDY    32  27  80 NW28G33   29.41R WCI  18
DES MOINES     CLOUDY    31  23  72 NW28G38   29.42R WCI  17
GRINNELL*      CLOUDY    32  28  86 NW21G33   29.34S WCI  20
KNOXVILLE *    CLOUDY    32  27  80 NW26G37   29.37R WCI  18
MARSHALLTOWN   CLOUDY    30  26  85 NW28G35   29.34R WCI  15
PELLA *        CLOUDY    32  28  86 NW22G31   29.38R WCI  19
PERRY *        CLOUDY    30  25  80 NW18G26   29.44R WCI  18
$$

IAZ004>006-015-016-023>025-035-036-241100-
   NORTH CENTRAL IOWA

CITY           SKY/WX    TMP DP  RH WIND       PRES   REMARKS
ALGONA *       CLOUDY    25  21  86 NW22G32   29.41R WCI  10
CLARION *      CLOUDY    27  25  93 NW29G39   29.38R WCI  11
ESTHERVILLE    CLOUDY    22  19  89 NW26G33   29.41F WCI   5
FORT DODGE *   CLOUDY    27  19  74 NW13G22   29.42R WCI  16
MASON CITY     CLOUDY    26  24  92 NW22G33   29.34R WCI  12
FOREST CITY *  CLOUDY    27  27 100 NW22G35   29.35R WCI  12
IOWA FALLS *   CLOUDY    28  25  86 NW28      29.36R WCI  13
$$

IAZ007>011-017>019-026>030-037>042-050>054-066-241100-
   NORTHEAST IOWA

CITY           SKY/WX    TMP DP  RH WIND       PRES   REMARKS
CEDAR RAPIDS   LGT SNOW  32  30  92 NW28G33   29.25R FOG     WCI  18
CHARLES CITY * LGT SNOW  28  27  93 NW25G33   29.28S WCI  14
CLINTON *      CLOUDY    37  34  87 NW18G24   29.17F WCI  27
DECORAH *      LGT RAIN  32  30  93 NW10G20   29.20S WCI  24
DUBUQUE        CLOUDY    36  35  96 NW20      29.15S WCI  25
MONTICELLO *   CLOUDY    34  34 100 NW22G30   29.19S WCI  22
OELWEIN *      LGT SNOW  30  28  93 NW22G30   29.25R WCI  17
WATERLOO       CLOUDY    29  26  89 NW22G30   29.28S WCI  15
$$

IAZ064-065-067-068-078-241100-
   EAST CENTRAL IOWA

CITY           SKY/WX    TMP DP  RH WIND       PRES   REMARKS
DAVENPORT      CLOUDY    36  33  89 NW21G30   29.19R WCI  25
IOWA CITY      LGT SNOW  33  33 100 NW22G32   29.27R FOG     WCI  21
MT. PLEASANT * LGT SNOW  32  32 100 W17G26    29.30R VSB 1   WCI  21
MUSCATINE *    CLOUDY    36  32  87 NW22G31   29.26R WCI  24
QUAD CITIES    CLOUDY    37  34  89 NW18G32   29.19R FOG     WCI  27
$$

IAZ062-063-075>077-085>089-095>099-241100-
   SOUTHEAST IOWA

CITY           SKY/WX    TMP DP  RH WIND       PRES   REMARKS
BURLINGTON     LGT SNOW  33  32  96 NW15G28   29.28R FOG     WCI  23
FAIRFIELD *    LGT SNOW  32  32 100 W22G29    29.31R WCI  19
FORT MADISON * LGT SNOW  36  34  93 W20       29.30R VSB 1   WCI  25
KEOKUK *       LGT SNOW  34  32  93 NW20G29   29.31R WCI  22
OSKALOOSA *    CLOUDY    32  30  93 NW26G36   29.35S WCI  18
CENTERVILLE *    N/A     32  30  93 W21       29.41R WCI  20
OTTUMWA        CLOUDY    33  29  85 NW24G38   29.35R WCI  20
WASHINGTON *   LGT SNOW  32  32 100 NW23G35   29.29R VSB 3/4 WCI  19
$$

ABBREVIATIONS USED IN REMARKS
   TC - TEMPERATURES IN CELSIUS
  WCI - WIND CHILL INDEX
   HX - HEAT INDEX
  VSB - VISIBILITY
$$



USA.gov is the U.S. government's official web portal to all federal, state and local government web resources and services.